CZ-2D DEB, 44609

Orbit data source: Space-Track

CZ-2D DEB, 44609 is space debris in SSO originally from a launch on Mon, 09 Oct 2017 UTC launched from the Jiuquan Satellite Launch Center, China (JSC). Debris objects in space refer to the collection of defunct objects orbiting the Earth. Examples of debris include non-operational satellites, rocket bodies, and fragments generated from explosions, collisions, or faulty payload assembly.

Loading next visibility...
Identifier
44609, 2017-060B
Orbit
SSO
Country
Flag of CNCN / PRC
Related business
Manufacturer
Unknown
Mission
Spacecraft
Bus & Motor
Unknown
Mass
Unknown
Launch date (UTC)
2017-10-09 (8 years ago)
Launch vehicle
Unknown
Launch site
Jiuquan Satellite Launch Center, China (JSC)
Object type
Payload
Rocket body
Debris
Shape & HBR
Unknown shape, 0.1 m
Radar Cross Section
Small (<0.1 m²)

Expand to show TLE details & history
Last TLE update: 12 hours ago

TLE from 12 hours ago
0 CZ-2D DEB
1 44609U 17060B   26037.29384492  .00008283  00000-0  67793-3 0  9992
2 44609  97.5458  59.7864 0033390  33.0989 327.2314 14.99123068445561
Epoch: 2026-02-06T07:03Z
TLE epoch observation values (Epoch: 2026-02-06T07:03:08.201Z)
Latitude
-0.00006°
Longitude
177.56845°
Altitude
553.174 km
Speed
7.596 km/s
True Right ascension
03h 59m 08s
True Declination
0° 00' 00"
Sunlit
Object was in daylight at epoch
Visualization orbit readout
Latitude
Unknown
Longitude
Unknown
Altitude
Unknown
Speed
Unknown
Apparent Right ascension
Unknown
Apparent Declination
Unknown
Sunlit
N/A
Visualization observer readout
Local Sidereal Time
21:00:47
Azimuth
Unknown
Elevation
Unknown
Doppler factor
Unknown
Orbital elements
Apogee altitude
589.793 km
Perigee altitude
543.416 km
Semi-major axis
6,944.741 km
Eccentricity
0.00334
Inclination
97.5458°
RAAN
59.7864°
Arg. of periapsis
33.0989°
True anomaly
327.02358°
Mean anomaly
327.2314°
Eccentric anomaly
327.12756°
Mean motion
3.75024 °/min
Orbital period
95.99 mins
BSTAR
0.00067793
Loading maneuver chart data...
Computing Atmospheric mass density...
Loading historical data...
Loading historical data...
Loading historical data...
Loading historical data...
Loading historical data...
Loading historical data...
Loading historical data...
Other satellites on launch #60 in the year 2017 (2017-10-09 UTC)

Documentation

Showing up to 5 results
|